Regional Weather Roundup
Issued by NWS

Home | Current Version | Previous Version | Graphics & Text | Print | Product List | Glossary On
Versions: 1 2 3 4 5 6 7 8 9 10 11 12 13 14 15 16 17 18 19 20 21 22 23 24 25 26 27 28 29 30 31 32 33 34 35 36 37 38 39 40 41 42 43 44 45 46 47 48 49 50
000
ASUS43 KFSD 060002
RWRSD

WEATHER ROUNDUP FOR SOUTH DAKOTA
NATIONAL WEATHER SERVICE SIOUX FALLS SD
700 PM CDT TUE MAY 05 2015

NOTE: "FAIR" INDICATES FEW OR NO CLOUDS BELOW 12,000 FEET WITH NO
SIGNIFICANT WEATHER AND/OR OBSTRUCTIONS TO VISIBILITY.


SDZ001>005-009-010-012>017-060100-
NORTHWEST AND NORTH CENTRAL SOUTH DAKOTA

CITY           SKY/WX    TMP DP  RH WIND       PRES   REMARKS
BUFFALO          N/A     66  49  54 SE25G38   29.73F
FAITH            N/A     65  51  60 SE17G26   29.84F
MOBRIDGE       PTSUNNY   74  51  44 S20       29.85F
$$

SDZ012>016-024>037-041>051-057-063-072>074-060100-
SOUTHWEST AND SOUTH CENTRAL SOUTH DAKOTA

CITY           SKY/WX    TMP DP  RH WIND       PRES   REMARKS
RAPID CTY ARPT CLOUDY    63  50  62 SE14      29.84F
PIERRE         CLOUDY    62  55  77 SE14      29.89F
CUSTER         CLOUDY    53  46  77 SE8       29.90F
PHILIP         CLOUDY    67  53  61 S17       29.85F
PINE RIDGE     CLOUDY    60  51  72 SE16      29.87F
WINNER         MOCLDY    62  58  86 E9        29.91F
$$

SDZ004>011-016>023-039-040-060100-
NORTHEAST SOUTH DAKOTA

CITY           SKY/WX    TMP DP  RH WIND       PRES   REMARKS
ABERDEEN       CLOUDY    73  52  47 S21       29.92S
WATERTOWN      CLOUDY    65  56  72 SE17      29.99S
BROOKINGS      CLOUDY    63  57  82 SE15      30.01S
SISSETON         N/A     70  56  61 S23G33    29.96F
$$

SDZ017-020-022-023-036>040-048>070-060100-
SOUTHEAST SOUTH DAKOTA

CITY           SKY/WX    TMP DP  RH WIND       PRES   REMARKS
SIOUX FALLS    CLOUDY    68  58  70 E12       29.98F
HURON          LGT RAIN  64  60  87 S7        29.94F
MITCHELL       CLOUDY    65  59  81 SE7       29.96F
YANKTON        CLOUDY    73  57  56 S15       29.93S
$$

ABBREVIATIONS USED IN REMARKS
   TC - TEMPERATURE IN CELSIUS
  WCI - WIND CHILL INDEX
   HX - HEAT INDEX
  VSB - VISIBILITY



USA.gov is the U.S. government's official web portal to all federal, state and local government web resources and services.